Погода в Нилавели

Шри-Ланка     8°40′46″N   81°11′45″E
темп.,
°C
ветер,
м/с
пор.,
м/с
влажн.,
%
обл.,
%
осадки,
мм/ч
давл.,
гПа
погр.,
м
20 апреля, вт
вт2023:30+27зюз5681100 1.2 1010267
02:30+27юз468189 0.0 1009344
05:30+26юз57828 0.0 1009361
08:30+28юз587625 0.0 1011567
11:30+31вюв32614 0.0 1009388
14:30+30в657010 0.0 1006393
17:30+29в44725 0.0 1007531
20:30+29в117066 0.1 1010488
21 апреля, ср
ср2123:30+29ююв3371100 0.1 1010595
02:30+28ю4479100 0.0 1008435
05:30+27ююз338184 0.0 1010303
08:30+28ююз237428 0.0 1012380
11:30+29вюв437051 0.0 1011430
14:30+29в657056 0.0 1008414
17:30+29всв557183 0.0 1008591
20:30+29юв2266100 0.0 1011692
22 апреля, чт
чт2223:30+29ююв22678 0.0 1011703
02:30+28юз337673 0.0 1009344
05:30+26зюз4581100 0.0 1010259
08:30+28зюз34765 0.0 1012467
11:30+30всв32636 0.0 1011406
14:30+29всв657215 0.0 1008317
17:30+29в44715 0.0 1008493
20:30+29юв11705 0.3 1011230
23 апреля, пт
пт2323:30+28юз337643 0.6 1011279
02:30+27юз478222 0.1 1009367
05:30+26зюз488773 0.1 1010369
08:30+28зюз57785 0.0 1011534
11:30+31вюв226032 0.0 1010290
14:30+30в6466100 0.0 1007502
17:30+30в337228 0.0 1007521
20:30+29юв337467 0.1 1010432
24 апреля, сб
сб2423:30+28юз45785 0.6 1011382
02:30+27юз46835 0.1 1009336
05:30+26зюз478696 0.1 1010418
08:30+28юз57765 0.0 1011650
11:30+32ююв346241 0.0 1009301
14:30+30вюв75719 0.0 1006482
17:30+30в557636 0.0 1007505
20:30+29юв347573 0.1 1010746